Location: Brompton
(51.4000°N, 0.5333°E)
Time: 18:38:51
(UTC+00:00)

Cosmos 1782 - Pass Details

Date: 11 May 2021
Orbit: 537 x 550 km, 82.5° (Epoch: 21 June)

Event Time Altitude Azimuth Distance (km) Brightness Sun altitude
Rises 20:23:18 0° 175° (S) 2,707 5.9 -6.7°
Reaches altitude 10° 20:25:30 10° 170° (S) 1,817 5.0 -6.9°
Maximum altitude 20:29:22 50° 95° (E) 700 3.0 -7.4°
Drops below altitude 10° 20:33:15 10° 20° (NNE) 1,825 5.8 -7.8°
Sets 20:35:27 0° 15° (NNE) 2,721 6.8 -8.1°
